This is the latest recevied weather packets stored in our database for station/object WC4PEM-11. If no packets are shown the sender has not sent any weather packets the latest 1 day(s).
| Time | Temp. | Humidity | Pressure | Rain* | Wind** | Luminosity | Snow |
|---|---|---|---|---|---|---|---|
| 1836274627 | 23.33° C | 89% | 1016.3 hPa | 0 mm | 2.24 m/s, 54° | - | - |
| 1836274477 | 23.33° C | 89% | 1016.4 hPa | 0 mm | 2.24 m/s, 50° | - | - |
| 1836274327 | 23.33° C | 88% | 1016.4 hPa | 0 mm | 2.24 m/s, 34° | - | - |
| 1836274177 | 23.33° C | 89% | 1016.4 hPa | 0 mm | 2.24 m/s, 34° | - | - |
| 1836274027 | 23.33° C | 88% | 1016.3 hPa | 0 mm | 2.24 m/s, 53° | - | - |
| 1778038383 | 21.11° C | 73% | 1016.9 hPa | 0 mm | 0.45 m/s, 120° | - | - |
| 1778038199 | 21.67° C | 72% | 1016.9 hPa | 0 mm | 0.89 m/s, 93° | - | - |
| 1778038083 | 21.67° C | 73% | 1016.8 hPa | 0 mm | 0.45 m/s, 129° | - | - |
| 1778037783 | 21.67° C | 72% | 1016.9 hPa | 0 mm | 0.89 m/s, 93° | - | - |
| 1778037747 | 21.67° C | 72% | 1016.9 hPa | 0 mm | 0.89 m/s, 108° | - | - |
| 1778037612 | 21.67° C | 71% | 1016.8 hPa | 0 mm | 0.89 m/s, 108° | - | - |
| 1778037483 | 21.67° C | 72% | 1016.8 hPa | 0 mm | 0.89 m/s, 84° | - | - |
| 1778037183 | 21.67° C | 72% | 1016.9 hPa | 0 mm | 0.89 m/s, 108° | - | - |
| 1778036883 | 21.67° C | 71% | 1016.8 hPa | 0 mm | 0.89 m/s, 111° | - | - |
| 1778036583 | 21.67° C | 71% | 1016.8 hPa | 0 mm | 0.89 m/s, 108° | - | - |
| 1778036394 | 22.22° C | 71% | 1016.8 hPa | 0 mm | 0.89 m/s, 86° | - | - |
| 1778036283 | 22.22° C | 71% | 1016.8 hPa | 0 mm | 0.89 m/s, 86° | - | - |
| 1778036154 | 22.22° C | 72% | 1016.7 hPa | 0 mm | 0.89 m/s, 137° | - | - |
| 1778035983 | 22.22° C | 72% | 1016.7 hPa | 0 mm | 0.89 m/s, 137° | - | - |
| 1778035835 | 22.22° C | 71% | 1016.8 hPa | 0 mm | 0.45 m/s, 106° | - | - |
| 1778035683 | 22.22° C | 71% | 1016.7 hPa | 0 mm | 0.45 m/s, 99° | - | - |
| 1778035383 | 22.22° C | 71% | 1016.8 hPa | 0 mm | 0.45 m/s, 106° | - | - |
| 1778035083 | 22.22° C | 70% | 1016.8 hPa | 0 mm | 0.45 m/s, 26° | - | - |
| 1778035057 | 22.78° C | 70% | 1016.7 hPa | 0 mm | 0.89 m/s, 129° | - | - |
| 1778034783 | 22.78° C | 70% | 1016.7 hPa | 0 mm | 0.89 m/s, 129° | - | - |
* Rain latest hour (hover to see other rain measurements)
** Current wind speed in m/s (hover to see current wind gust speed)